Overview Statistics Trail Chart Weather Telemetry Raw packets
 

This is the latest recevied weather packets stored in our database for station/object KE0TNI-13. If no packets are shown the sender has not sent any weather packets the latest 10 day(s).

<< 57 58 59 60 61 62 63 >>
Time Temp. Humidity Pressure Rain* Wind** Luminosity Snow
1777282771 -2.22° C 75% 1009.2 hPa 0 mm - 0 W/m² -
1777282467 -2.22° C 77% 1008.9 hPa 0 mm - 0 W/m² -
1777282166 -2.22° C 74% 1008.9 hPa 0 mm - 0 W/m² -
1777281862 -2.22° C 77% 1009.2 hPa 0 mm - 0 W/m² -
1777281560 -2.22° C 76% 1008.9 hPa 0 mm - 0 W/m² -
1777281256 -2.22° C 76% 1008.8 hPa 0 mm - 0 W/m² -
1777280953 -2.22° C 76% 1008.8 hPa 0 mm - 0 W/m² -
1777280649 -2.22° C 76% 1008.8 hPa 0 mm - 0 W/m² -
1777280347 -2.22° C 77% 1008.9 hPa 0 mm - 0 W/m² -
1777280043 -2.22° C 77% 1008.9 hPa 0 mm - 0 W/m² -
1777279740 -2.22° C 77% 1008.8 hPa 0 mm - 0 W/m² -
1777279438 -2.22° C 76% 1008.9 hPa 0 mm - 0 W/m² -
1777279135 -2.22° C 76% 1008.9 hPa 0 mm - 0 W/m² -
1777278831 -2.22° C 77% 1008.8 hPa 0 mm - 0 W/m² -
1777278527 -2.22° C 77% 1008.7 hPa 0 mm - 0 W/m² -
1777278224 -2.22° C 75% 1009.1 hPa 0 mm - 0 W/m² -
1777277920 -2.22° C 75% 1009.1 hPa 0 mm - 0 W/m² -
1777277617 -2.22° C 75% 1009.2 hPa 0 mm - 0 W/m² -
1777277312 -2.22° C 75% 1009.2 hPa 0 mm - 0 W/m² -
1777277008 -2.22° C 77% 1008.9 hPa 0 mm - 0 W/m² -
1777276704 -2.22° C 77% 1009.1 hPa 0 mm - 0 W/m² -
1777276401 -2.22° C 79% 1009.2 hPa 0 mm - 0 W/m² -
1777276097 -1.67° C 78% 1009.1 hPa 0 mm - 0 W/m² -
1777275794 -1.67° C 77% 1009.2 hPa 0 mm - 0 W/m² -
1777275492 -1.67° C 77% 1009.5 hPa 0 mm - 0 W/m² -

* Rain latest hour (hover to see other rain measurements)
** Current wind speed in m/s (hover to see current wind gust speed)